User: anonymous
Location: Charleston
(38.3500°N, 81.6330°W)
Time: 09:39:41
(UTC-04:00)
Language:

Cosmos 2228 - Orbit

View from above orbital plane
View from above orbital plane
View from above satellite
View from above satellite

Ground track
Ground track

The orbit data is extracted from the following two-line orbital elements,

1 22286U 92094A   14243.47679230  .00000760  00000-0  84186-4 0  4063
2 22286 082.5189 255.6425 0019678 264.8770 095.0200 14.85936050170790
Epoch (UTC): 31 August 2014 11:26:34
Eccentricity: 0.0019678
inclination: 82.5189°
perigee height: 597 km
apogee height: 624 km
right ascension of ascending node: 255.6425°
argument of perigee: 264.8770°
revolutions per day: 14.85936050
mean anomaly at epoch: 95.0200°
orbit number at epoch: 17079

The dashed part of the orbit path shows where the satellite is in the earth's shadow,  

DLR